Notices

What's New in latest Release from April 7th, 2021:

- Updated Glossary, including Speed of Maximum Gust, and Total Hourly Precipitation

- Updated national and regional climate services offices contacts and prices information

- Addition of station inventory lists for 1981-2010, 1971-2000, and 1961-1990 Normals.

If you haven't already, please take our survey and provide feedback about our website: https://eccc.sondage-survey.ca/f/LanguageSelection.aspx?s=442ca660-fcf1-47c0-95a9-59707d6fd709

Hourly Data Report for November 17, 2019

EUREKA CLIMATE
NUNAVUT
Current Station Operator: ECCC - MSC

79°59'21.000" N
85°56'02.000" W
10.00 m
2401199
71613
NEK

Download Data

Hourly Data (November 2019)
Hourly Data Report for November 17, 2019
TIME
LST
Temp Definition
°C
Dew Point Definition
°C
Rel Hum Definition
%
Precip. Amount Definition
mm

Wind Dir Definition
10's deg

Wind Spd Definition
km/h
Visibility Definition
km
Stn Press Definition
kPa
Hmdx Definition


Wind Chill Definition


Weather Definition


00:00 -22.6 -25.0 81 0.0 7 4   100.86   -26 LegendNANA
01:00 -23.5 -25.7 82 0.0 9 5   100.89   -28 LegendNANA
02:00 -25.0 -27.4 81 0.0 9 6   100.92   -31 LegendNANA
03:00 -24.7 -27.0 81 0.0 8 4   100.96   -29 LegendNANA
04:00 -24.2 -26.3 82 0.0 10 3   100.98   -27 LegendNANA
05:00 -25.2 -27.4 82 0.0 9 6   100.99   -31 LegendNANA
06:00 -24.0 -26.3 81 0.0 6 5   100.99   -29 LegendNANA
07:00 -23.5 -25.9 81 0.0 2 4   100.98   -27 LegendNANA
08:00 -24.0 -26.5 80 0.0 1 3   100.97   -27 LegendNANA
09:00 -24.2 -26.5 81 0.0 1 4   100.97   -28 LegendNANA
10:00 -23.8 -25.9 83 0.0 2 1   100.91   -25 LegendNANA
11:00 -23.3 -25.3 83 0.0 9 3   100.90   -26 LegendNANA
12:00 -23.2 -25.4 82 0.0 2 7   100.89   -29 LegendNANA
13:00 -21.1 -23.4 82 0.0 30 18   100.84   -31 LegendNANA
14:00 -19.1 -22.6 74 0.0 29 21   100.79   -30 LegendNANA
15:00 -18.5 -22.0 74 0.0 27 20   100.77   -29 LegendNANA
16:00 -18.4 -22.2 72 0.0 29 24   100.74   -29 LegendNANA
17:00 -17.5 -21.8 69 0.0 28 21   100.70   -28 LegendNANA
18:00 -16.9 -21.8 66 0.0 28 20   100.67   -27 LegendNANA
19:00 -16.6 -21.6 65 0.0 31 14   100.64   -25 LegendNANA
20:00 -19.2 -21.9 79 0.0 12 16   100.63   -28 LegendNANA
21:00 -19.4 -22.0 80 0.0 11 13   100.61   -28 LegendNANA
22:00 -18.8 -21.3 80 0.0 12 10   100.58   -26 LegendNANA
23:00 -19.1 -21.7 80 0.0 11 19   100.55   -29 LegendNANA

Notes on Data Quality.

Legend

  • E = Estimated
  • M = Missing
  • NA = Not Available*
  • [empty] = Indicates an unobserved value
Date modified: